Location: Newark
(35.4036°N, 80.4356°W)
Time: 02:49:20
(UTC+00:00)

ISS - Visible Passes

Search period start: 23 July 2019 00:00
Search period end: 02 August 2019 00:00
Orbit: 409 x 418 km, 51.6° (Epoch: 23 July)

Date Brightness Start Highest point End Pass type
(mag) Time Alt. Az. Time Alt. Az. Time Alt. Az.
23 Jul -0.4 01:35:53 10° NW 01:37:06 11° NNW 01:38:19 10° N visible
28 Jul -0.2 03:58:22 10° NNW 03:58:33 11° NNW 03:58:33 11° NNW visible
29 Jul -0.8 03:09:39 10° N 03:10:46 12° NNE 03:10:46 12° NNE visible
30 Jul -0.2 03:55:43 10° NW 03:55:50 11° NW 03:55:50 11° NW visible
31 Jul -1.2 03:06:36 10° NNW 03:08:06 19° N 03:08:06 19° N visible
01 Aug -1.5 02:17:39 10° NNW 02:19:53 16° NNE 02:20:24 16° NE visible
